Simultaneous Nadir Overpasses (SNOs) Predictions

Prediction of SNOs between GOES-17 and AQUA Satellite Orbit:

Table of predicted SNOs for the next 14.0 days since TLE Epoch: 5/2/2025
Index Date Time (GOES-17) GOES-17 Lat,Lon AQUA Lat,Lon Distance(km) Time Diff (sec)
1 05/03/2025 21:26:53 0.01,-104.39 0.58,-101.81 294.22 80
2 05/04/2025 09:46:05 -0.01,-104.38 0.43,-106.44 234.37 80
3 05/06/2025 09:23:17 -0.00,-104.39 -0.63,-101.51 327.64 80
4 05/06/2025 21:42:38 0.00,-104.40 -0.35,-106.19 202.92 80
5 05/08/2025 21:25:08 0.00,-104.42 0.66,-101.25 360.29 80
6 05/09/2025 09:44:19 -0.00,-104.42 0.31,-105.89 167.43 80
7 05/11/2025 09:21:30 -0.00,-104.43 -0.77,-100.96 395.90 80
8 05/11/2025 21:40:49 0.00,-104.44 -0.24,-105.63 134.84 80
9 05/13/2025 21:23:17 0.00,-104.45 0.80,-100.68 429.01 80
10 05/14/2025 09:42:28 -0.00,-104.45 0.20,-105.31 98.21 80
11 05/16/2025 09:19:36 -0.00,-104.46 -0.91,-100.37 465.58 80
